AMV105 LZKZ-LZIB

Flight info

Callsign AMV105
Flight time 0h 38m
Altitude 24000
Route TAKOS N190 NIT
Aircraft B38M/M-SDE1FGHILORVWXY/HB1

Departure

Time 2026-04-25 17:49
Airport Košice International Airport (LZKZ)

Arrival

Time 2026-04-25 18:28
Airport M. R. Štefánik Airport (LZIB)
Time Latitude Longitude Altitude Speed Heading
2026-04-25 17:13 48.67331 21.23848 760 ft 0 kts 233°
2026-04-25 17:45 48.67325 21.23844 760 ft 1 kts 197°
2026-04-25 17:45 48.67319 21.23847 755 ft 1 kts 154°
2026-04-25 17:46 48.67316 21.23855 755 ft 1 kts 112°
2026-04-25 17:46 48.67314 21.23867 755 ft 2 kts 106°
2026-04-25 17:46 48.67305 21.23921 755 ft 5 kts 103°
2026-04-25 17:46 48.67299 21.23963 759 ft 7 kts 103°
2026-04-25 17:47 48.67281 21.24075 760 ft 10 kts 104°
2026-04-25 17:47 48.67264 21.24185 760 ft 12 kts 103°
2026-04-25 17:47 48.67243 21.24315 758 ft 14 kts 103°
2026-04-25 17:47 48.67223 21.24419 758 ft 8 kts 128°
2026-04-25 17:48 48.67183 21.24426 762 ft 0 kts 192°
2026-04-25 17:48 48.67141 21.24411 762 ft 20 kts 194°
2026-04-25 17:48 48.66775 21.24282 762 ft 89 kts 193°
2026-04-25 17:49 48.65971 21.24001 758 ft 146 kts 194°
2026-04-25 17:49 48.64907 21.23651 1107 ft 164 kts 193°
2026-04-25 17:49 48.63732 21.23218 1604 ft 177 kts 195°
2026-04-25 17:49 48.62192 21.22666 2599 ft 179 kts 197°
2026-04-25 17:50 48.60876 21.22212 2930 ft 207 kts 196°
2026-04-25 17:50 48.59905 21.21883 3352 ft 214 kts 196°
2026-04-25 17:50 48.58452 21.21386 4194 ft 215 kts 196°
2026-04-25 17:50 48.56998 21.20702 4817 ft 226 kts 213°
2026-04-25 17:51 48.55906 21.18997 5274 ft 238 kts 246°
2026-04-25 17:51 48.55565 21.16510 5775 ft 253 kts 275°
2026-04-25 17:51 48.55922 21.13841 6339 ft 266 kts 284°
2026-04-25 17:51 48.56333 21.11123 7244 ft 265 kts 284°
2026-04-25 17:52 48.56745 21.08410 8129 ft 266 kts 284°
2026-04-25 17:52 48.57018 21.06611 8718 ft 267 kts 284°
2026-04-25 17:52 48.57249 21.02859 9858 ft 270 kts 274°
2026-04-25 17:52 48.57287 20.99988 10474 ft 281 kts 274°
2026-04-25 17:53 48.57332 20.96936 10786 ft 301 kts 274°
2026-04-25 17:53 48.57381 20.93679 11116 ft 319 kts 274°
2026-04-25 17:53 48.57434 20.90256 11581 ft 331 kts 273°
2026-04-25 17:53 48.57487 20.86774 12363 ft 333 kts 273°
2026-04-25 17:54 48.57539 20.83312 13138 ft 336 kts 273°
2026-04-25 17:54 48.57592 20.79774 13945 ft 338 kts 273°
2026-04-25 17:54 48.57643 20.76209 14669 ft 341 kts 273°
2026-04-25 17:54 48.57695 20.72615 15433 ft 344 kts 273°
2026-04-25 17:55 48.57743 20.68997 16166 ft 347 kts 273°
2026-04-25 17:55 48.57794 20.65337 16908 ft 350 kts 273°
2026-04-25 17:55 48.57844 20.61640 17627 ft 353 kts 273°
2026-04-25 17:55 48.57892 20.57924 18309 ft 356 kts 273°
2026-04-25 17:56 48.57940 20.54167 18905 ft 359 kts 273°
2026-04-25 17:56 48.57985 20.50448 19548 ft 360 kts 273°
2026-04-25 17:56 48.58030 20.46668 20197 ft 362 kts 273°
2026-04-25 17:56 48.58075 20.42857 20689 ft 364 kts 273°
2026-04-25 17:57 48.58118 20.39036 21316 ft 365 kts 273°
2026-04-25 17:57 48.58161 20.35188 21916 ft 367 kts 273°
2026-04-25 17:57 48.58202 20.31322 22525 ft 370 kts 273°
2026-04-25 17:57 48.58229 20.28747 22905 ft 371 kts 273°
2026-04-25 17:58 48.57910 20.23526 23633 ft 377 kts 264°
2026-04-25 17:58 48.57523 20.19943 23799 ft 380 kts 264°
2026-04-25 17:58 48.57108 20.16077 23900 ft 385 kts 264°
2026-04-25 17:58 48.56673 20.12046 23905 ft 395 kts 264°
2026-04-25 17:59 48.56224 20.07914 23902 ft 403 kts 264°
2026-04-25 17:59 48.55792 20.03952 23907 ft 409 kts 264°
2026-04-25 17:59 48.55356 19.99966 23916 ft 409 kts 264°
2026-04-25 17:59 48.54906 19.95871 23922 ft 409 kts 264°
2026-04-25 18:00 48.54598 19.93070 23908 ft 408 kts 263°
2026-04-25 18:00 48.53973 19.87424 23945 ft 409 kts 263°
2026-04-25 18:00 48.53504 19.83185 23940 ft 409 kts 263°
2026-04-25 18:00 48.53032 19.78952 23928 ft 410 kts 263°
2026-04-25 18:01 48.52559 19.74722 23940 ft 410 kts 263°
2026-04-25 18:01 48.52084 19.70486 23928 ft 409 kts 263°
2026-04-25 18:01 48.51609 19.66265 23944 ft 409 kts 263°
2026-04-25 18:01 48.51132 19.62032 23941 ft 409 kts 263°
2026-04-25 18:02 48.50653 19.57804 23903 ft 410 kts 263°
2026-04-25 18:02 48.50172 19.53562 23931 ft 412 kts 263°
2026-04-25 18:02 48.49694 19.49361 23930 ft 412 kts 263°
2026-04-25 18:02 48.49208 19.45104 23939 ft 412 kts 263°
2026-04-25 18:03 48.48721 19.40847 23942 ft 412 kts 263°
2026-04-25 18:03 48.48233 19.36601 23940 ft 412 kts 263°
2026-04-25 18:03 48.47742 19.32348 23939 ft 412 kts 263°
2026-04-25 18:03 48.47250 19.28095 23952 ft 412 kts 262°
2026-04-25 18:04 48.46756 19.23837 23946 ft 412 kts 262°
2026-04-25 18:04 48.46262 19.19591 23942 ft 412 kts 262°
2026-04-25 18:04 48.45774 19.15419 23848 ft 404 kts 262°
2026-04-25 18:04 48.45252 19.11272 23399 ft 395 kts 260°
2026-04-25 18:05 48.44643 19.07245 22695 ft 392 kts 260°
2026-04-25 18:05 48.44048 19.03265 22136 ft 387 kts 260°
2026-04-25 18:05 48.43465 18.99335 21528 ft 384 kts 260°
2026-04-25 18:05 48.42885 18.95432 20913 ft 381 kts 260°
2026-04-25 18:06 48.42316 18.91602 20307 ft 379 kts 260°
2026-04-25 18:06 48.41742 18.87746 19699 ft 377 kts 260°
2026-04-25 18:06 48.41167 18.83896 19088 ft 376 kts 260°
2026-04-25 18:06 48.40593 18.80061 18487 ft 375 kts 259°
2026-04-25 18:07 48.40019 18.76235 17845 ft 374 kts 259°
2026-04-25 18:07 48.39445 18.72420 17222 ft 373 kts 259°
2026-04-25 18:07 48.38872 18.68620 16624 ft 371 kts 259°
2026-04-25 18:07 48.38302 18.64848 16060 ft 369 kts 259°
2026-04-25 18:08 48.37732 18.61088 15500 ft 367 kts 259°
2026-04-25 18:08 48.37166 18.57353 14943 ft 366 kts 259°
2026-04-25 18:08 48.36600 18.53634 14410 ft 364 kts 259°
2026-04-25 18:08 48.36034 18.49937 13820 ft 364 kts 259°
2026-04-25 18:09 48.35465 18.46230 13200 ft 363 kts 259°
2026-04-25 18:09 48.34907 18.42603 12703 ft 359 kts 259°
2026-04-25 18:09 48.34346 18.38965 12201 ft 356 kts 259°
2026-04-25 18:09 48.33970 18.36527 11860 ft 354 kts 259°
2026-04-25 18:10 48.33236 18.31791 11327 ft 346 kts 259°
2026-04-25 18:10 48.32701 18.28344 11183 ft 333 kts 259°
2026-04-25 18:10 48.32189 18.25059 11020 ft 313 kts 259°
2026-04-25 18:10 48.31709 18.21977 10864 ft 292 kts 259°
2026-04-25 18:11 48.31260 18.19099 10714 ft 274 kts 260°
2026-04-25 18:11 48.30835 18.16385 10566 ft 260 kts 260°
2026-04-25 18:11 48.30431 18.13805 10446 ft 249 kts 260°
2026-04-25 18:11 48.30039 18.11310 10286 ft 244 kts 260°
2026-04-25 18:12 48.29644 18.08792 10176 ft 253 kts 260°
2026-04-25 18:12 48.29234 18.06186 9899 ft 260 kts 260°
2026-04-25 18:12 48.28927 18.03513 9543 ft 260 kts 265°
2026-04-25 18:12 48.28696 18.00851 9204 ft 260 kts 265°
2026-04-25 18:13 48.28454 17.98168 8865 ft 259 kts 265°
2026-04-25 18:13 48.28207 17.95495 8521 ft 258 kts 265°
2026-04-25 18:13 48.27958 17.92835 8206 ft 257 kts 265°
2026-04-25 18:14 48.27473 17.87542 7561 ft 256 kts 265°
2026-04-25 18:14 48.27235 17.84899 7252 ft 255 kts 265°
2026-04-25 18:14 48.26997 17.82267 6923 ft 255 kts 264°
2026-04-25 18:14 48.26707 17.79645 6598 ft 256 kts 255°
2026-04-25 18:15 48.25789 17.77345 6270 ft 263 kts 231°
2026-04-25 18:15 48.24495 17.75399 5936 ft 263 kts 229°
2026-04-25 18:15 48.23201 17.73465 5591 ft 263 kts 229°
2026-04-25 18:15 48.21901 17.71541 5254 ft 263 kts 229°
2026-04-25 18:16 48.20591 17.69618 4910 ft 263 kts 228°
2026-04-25 18:16 48.19367 17.67690 4554 ft 254 kts 240°
2026-04-25 18:16 48.18979 17.62865 3859 ft 237 kts 292°
2026-04-25 18:17 48.19853 17.60798 3731 ft 237 kts 310°
2026-04-25 18:17 48.20949 17.58934 3614 ft 239 kts 311°
2026-04-25 18:17 48.22068 17.57095 3458 ft 238 kts 312°
2026-04-25 18:17 48.23198 17.55286 3310 ft 238 kts 313°
2026-04-25 18:18 48.24231 17.53369 3149 ft 237 kts 296°
2026-04-25 18:18 48.24541 17.50969 2983 ft 239 kts 266°
2026-04-25 18:18 48.24003 17.48628 2835 ft 246 kts 242°
2026-04-25 18:18 48.22915 17.46628 2695 ft 250 kts 224°
2026-04-25 18:19 48.21430 17.45312 2572 ft 244 kts 210°
2026-04-25 18:19 48.20170 17.43819 2536 ft 223 kts 235°
2026-04-25 18:19 48.19167 17.42140 2537 ft 210 kts 226°
2026-04-25 18:19 48.17917 17.41174 2509 ft 203 kts 195°
2026-04-25 18:20 48.16500 17.41239 2491 ft 209 kts 167°
2026-04-25 18:20 48.15225 17.42295 2494 ft 212 kts 140°
2026-04-25 18:20 48.14144 17.43817 2524 ft 214 kts 137°
2026-04-25 18:20 48.13082 17.45380 2516 ft 214 kts 136°
2026-04-25 18:21 48.12032 17.46952 2512 ft 213 kts 135°
2026-04-25 18:21 48.11002 17.48509 2507 ft 213 kts 135°
2026-04-25 18:21 48.09895 17.49959 2474 ft 210 kts 154°
2026-04-25 18:21 48.08511 17.50386 2449 ft 203 kts 190°
2026-04-25 18:22 48.07224 17.49670 2481 ft 196 kts 219°
2026-04-25 18:22 48.06857 17.49250 2502 ft 199 kts 224°
2026-04-25 18:22 48.05158 17.47004 2502 ft 189 kts 227°
2026-04-25 18:22 48.04213 17.45678 2489 ft 184 kts 232°
2026-04-25 18:23 48.03713 17.44018 2438 ft 173 kts 269°
2026-04-25 18:23 48.03958 17.42332 2505 ft 164 kts 294°
2026-04-25 18:23 48.04516 17.40861 2532 ft 161 kts 305°
2026-04-25 18:23 48.05181 17.39657 2487 ft 144 kts 311°
2026-04-25 18:24 48.05841 17.38591 2563 ft 141 kts 312°
2026-04-25 18:24 48.06515 17.37536 2523 ft 140 kts 312°
2026-04-25 18:24 48.07188 17.36488 2495 ft 140 kts 312°
2026-04-25 18:24 48.07861 17.35444 2490 ft 140 kts 313°
2026-04-25 18:25 48.08538 17.34395 2363 ft 139 kts 313°
2026-04-25 18:25 48.09208 17.33356 2206 ft 139 kts 312°
2026-04-25 18:25 48.09876 17.32318 2041 ft 138 kts 312°
2026-04-25 18:25 48.10554 17.31245 1867 ft 146 kts 311°
2026-04-25 18:26 48.11281 17.30115 1708 ft 155 kts 313°
2026-04-25 18:26 48.12039 17.29018 1495 ft 153 kts 313°
2026-04-25 18:26 48.12759 17.27849 1232 ft 153 kts 309°
2026-04-25 18:26 48.13479 17.26728 1044 ft 146 kts 313°
2026-04-25 18:27 48.14192 17.25643 838 ft 146 kts 311°
2026-04-25 18:27 48.14890 17.24550 655 ft 144 kts 315°
2026-04-25 18:27 48.15584 17.23474 484 ft 143 kts 314°
2026-04-25 18:27 48.16243 17.22457 431 ft 117 kts 314°
2026-04-25 18:28 48.16656 17.21823 424 ft 53 kts 314°
2026-04-25 18:28 48.16899 17.21440 435 ft 49 kts 313°
2026-04-25 18:28 48.17096 17.21134 431 ft 28 kts 314°
2026-04-25 18:29 48.17071 17.20931 420 ft 0 kts 226°
2026-04-25 18:29 48.17070 17.20930 420 ft 2 kts 226°
2026-04-25 18:30 48.17104 17.20748 426 ft 8 kts 313°
2026-04-25 18:30 48.17145 17.20678 430 ft 10 kts 310°
2026-04-25 18:30 48.17159 17.20580 424 ft 11 kts 250°
2026-04-25 18:30 48.17112 17.20494 431 ft 11 kts 225°
2026-04-25 18:31 48.17058 17.20416 428 ft 10 kts 224°
2026-04-25 18:31 48.17010 17.20346 436 ft 10 kts 224°
2026-04-25 18:31 48.16957 17.20269 431 ft 11 kts 224°
2026-04-25 18:31 48.16895 17.20180 434 ft 13 kts 223°
2026-04-25 18:32 48.16855 17.20112 440 ft 3 kts 263°
2026-04-25 18:32 48.16869 17.20075 433 ft 3 kts 313°
2026-04-25 18:32 48.16879 17.20059 443 ft 1 kts 314°
2026-04-25 18:32 48.16880 17.20058 443 ft 0 kts 314°
2026-04-25 18:33 48.16882 17.20055 443 ft 2 kts 314°
2026-04-25 18:33 48.16883 17.20054 443 ft 0 kts 314°
2026-04-25 18:33 48.16885 17.20050 443 ft 0 kts 314°